THORAD AGENA D DEB

Satellite information

Favourite Embed

Satellite Type and Status

DEBRISIN ORBIT

Key statistics

Satellite THORAD AGENA D DEB at a glance.

Uptime

20339

Days in orbit

Revolutions

≈ 14.2

Per day

Orbit

SSO

Sun Synchronous Orbit

Inclination

100.0

Latest

Satellite identification and parameters

Extended collection of information and parameters for THORAD AGENA D DEB.

Object identification

Identified? True

Debris? True

Object name: THORAD AGENA D DEB

International designator: 1970-025TM

Object number (NORAD): 44564

Object ID (CCSDS): 44564

Country: UNITED STATES OF AMERICA (US)

Current information (Y/N): Y

RCS size: SMALL

Orbital parameters

Period: 101.465 minutes

Inclination: 99.9899 deg

SMA: 7206.186 km

Apoapsis: 880.569 km

Periapsis: 775.533 km

RAAN: 311.1201 deg

Eccentricy: 0.0072879

Argument of periapsis: 319.6742 deg

Mean anomaly: 163.5598 deg

Mean motion: 14.19203191 rev/day

Mean motion (dot): 0.00009091 rev/day2

B* drag term: 0.0042459038 1/REarth

Two-line elements (TLE)

Creation date: Dec. 11, 2025, 7:14 p.m.

Reference frame: TEME

Reference center: EARTH

Epoch: Dec. 11, 2025, 11:41 a.m. UTC

TLE line 0: 0 THORAD AGENA D DEB

TLE line 1: 1 44564U 70025TM 25345.48707848 .00009091 00000-0 42459-2 0 9997

TLE line 2: 2 44564 99.9899 311.1201 0072879 319.6742 163.5598 14.19203191618645

Live tracking on map

Real-time ground track for satellite THORAD AGENA D DEB.

In-orbit conjunctions

A list of the most updated potential collisions computed for object THORAD AGENA D DEB.

Target Orbit TCA Probability of collision Miss distance Type
MONITOR-E/SL-19 SSO 2025-03-01 23:59:38 0.0001514995 140.0 (m) PAYLOAD
GGSE 1 (GGRS) LEO 2024-11-05 22:11:13 0.0001886816 487.0 (m) PAYLOAD
SL-3 R/B LEO 2024-08-24 06:08:05 0.000110472 322.0 (m) ROCKET BODY
DELTA 1 DEB SSO 2024-06-21 16:42:38 0.000204869 35.0 (m) DEBRIS

Associated space launch

Meteorological research and development satellite

THORAD AGENA D DEB was lifted into orbit during the mission ‘Thorad SLV-2G Agena D | Nimbus 4’, on board a Thorad SLV-2G Agena D space rocket.

The launch took place on April 8, 1970, 8:17 a.m. from Space Launch Complex 2E.

For more information about the launch, click the button.

Launch to space Thorad SLV-2G Agena D | Nimbus 4
Thorad SLV-2G Agena D | Nimbus 4

Agency: N/A

Status: Launch Successful

Launch date: April 8, 1970, 8:17 a.m. UTC

Rocket: Thorad SLV-2G Agena D

Launch pad: Space Launch Complex 2E

Location: Vandenberg SFB, CA, USA

...

Latest news about this satellite

There are no fresh news available about this satellite. Check back as we update our databases every day.


Newsletter sign-up

Weekly statistics, charts and insights to help you stay on top of the space industry.